Simultaneous Nadir Overpasses (SNOs) Predictions

Prediction of SNOs between FY3D and AQUA Satellite Orbit:

Table of predicted SNOs for the next 14.0 days since TLE Epoch: 5/11/2019
Index Date (FY3D) Time (FY3D) Lat,Lon (FY3D) SZA (FY3D ) Date (AQUA) Time (AQUA) Lat,Lon (AQUA) SZA (AQUA ) Distance(km) Time Diff (sec)
1 05/13/2019 11:45:17 -65.94, 46.04 90.26 05/13/2019 11:46:21 -65.95, 46.08 90.35 1.96 64
2 05/13/2019 12:34:41 70.21,-141.22 85.30 05/13/2019 12:34:30 70.21,-141.22 85.31 0.12 11
3 05/16/2019 04:01:29 -66.79, 162.85 91.75 05/16/2019 04:02:34 -66.79, 162.82 91.81 1.26 65
4 05/16/2019 04:51:14 69.92, -25.78 84.99 05/16/2019 04:51:03 69.92, -25.74 84.99 1.43 11
5 05/18/2019 20:18:00 -66.55, -81.54 92.07 05/18/2019 20:19:05 -66.55, -81.55 92.14 0.25 65
6 05/18/2019 21:07:43 69.78, 89.91 84.55 05/18/2019 21:07:32 69.79, 89.96 84.55 2.39 11
7 05/21/2019 12:34:30 -66.42, 34.20 92.47 05/21/2019 12:35:35 -66.42, 34.20 92.54 0.40 65
8 05/21/2019 13:23:55 70.60,-152.95 83.15 05/21/2019 13:23:45 70.59,-153.00 83.18 2.18 10
9 05/24/2019 04:50:59 -66.34, 149.99 92.88 05/24/2019 04:52:04 -66.34, 150.00 92.95 0.60 65
10 05/24/2019 05:40:22 70.63, -37.03 82.63 05/24/2019 05:40:12 70.62, -37.08 82.66 2.13 10




NCC Satellite Simultaneous Nadir Overpasses (SNOs) Prediction Service
